Probability
10 6 6 0 0 0 6 3 3 3 3 6 6 6 10 3 0 0 10 13 29 35 32 29 32 29 32 35 39 35 29 32 29 39 35 35 39 39 32 29 29 32 39
10 6 6 0 0 0 0 3 3 3 0 0 6 10 10 10 10 10 6 10 23 32 39 32 29 35 32 29 29 35 42 45 48 45 45 45 42 32 35 29 35 35 35
10 10 6 3 0 0 0 0 0 0 0 6 10 6 10 10 13 10 6 10 10 19 32 45 42 42 35 26 32 32 39 42 39 39 42 32 29 32 35 26 26 26 35
6 6 10 3 3 3 3 3 3 6 6 10 6 6 10 6 10 6 6 10 13 13 23 35 48 52 39 35 35 32 35 42 39 39 32 29 26 32 29 32 29 29 29
13 10 6 0 3 6 6 6 10 6 3 3 3 10 6 3 3 3 10 10 13 13 16 13 35 42 32 32 32 35 35 35 35 32 32 29 29 29 32 29 35 26 26
13 6 6 6 6 3 3 3 0 0 3 3 3 10 0 0 0 0 0 13 10 10 10 16 16 19 23 32 35 42 39 45 35 35 32 29 26 32 29 29 32 29 29
13 10 10 10 6 6 6 3 0 6 6 3 6 3 0 0 0 0 0 3 6 6 10 10 13 13 13 23 35 35 39 39 42 42 32 32 29 29 32 32 29 32 29
13 10 10 10 10 3 3 3 0 3 6 3 3 3 3 3 3 3 3 3 3 6 10 10 13 16 16 13 10 19 35 35 32 35 29 32 29 29 32 32 32 32 35
13 13 10 10 6 3 3 3 6 3 3 3 6 6 6 6 6 3 3 3 3 10 10 10 10 10 6 13 16 13 26 39 39 29 32 32 29 26 26 29 32 29 26
16 13 10 6 6 6 3 0 3 3 3 6 6 6 6 6 6 6 3 0 0 3 6 6 6 6 3 10 6 3 19 23 32 39 32 32 32 29 26 26 19 23 23
10 10 6 6 6 6 3 3 3 3 6 6 6 6 6 6 3 3 6 3 3 3 3 6 6 6 3 3 6 6 6 10 13 16 32 29 32 29 29 23 23 19 23
16 16 19 10 3 6 10 6 6 6 6 6 6 6 6 6 6 3 3 3 3 6 3 3 6 6 6 3 3 3 6 6 3 10 13 16 23 23 19 19 19 19 19
16 10 10 13 10 10 3 6 6 6 6 6 6 6 6 6 6 10 6 10 3 3 6 6 10 3 3 10 10 3 6 3 3 3 3 6 10 13 13 16 16 16 13
10 10 10 13 13 10 10 10 10 10 10 10 13 13 10 13 10 3 6 10 6 6 6 13 10 13 13 16 6 3 3 3 3 3 3 3 3 3 3 10 13 13 13
13 13 16 16 19 10 10 10 16 16 13 13 16 16 16 13 13 13 13 13 10 13 6 6 10 10 16 16 6 6 10 3 3 3 0 0 0 3 3 3 3 6 6
10 13 13 16 16 13 13 13 16 16 16 16 19 23 16 16 16 16 16 10 10 13 10 6 6 6 6 3 3 6 10 3 3 3 0 0 0 0 0 0 0 0 0
10 10 13 10 13 10 13 16 19 19 23 23 19 19 10 16 16 13 6 3 6 3 3 3 3 3 6 6 6 6 10 10 10 3 3 0 0 0 0 0 0 0 0
6 6 6 13 13 13 19 13 16 23 26 19 19 16 13 13 16 16 10 3 6 3 3 10 6 3 6 6 6 6 6 3 10 3 3 3 0 0 0 0 0 0 0
13 10 13 13 10 13 16 13 13 13 16 16 16 13 13 13 13 16 13 10 10 6 6 6 10 6 3 3 6 3 3 6 3 3 3 3 3 0 0 0 0 0 0
16 13 10 6 6 10 16 13 13 16 13 16 16 13 16 16 16 13 6 10 13 10 6 6 6 6 6 6 3 6 6 6 3 3 3 3 3 0 0 0 0 0 0
13 13 13 10 10 10 13 13 16 16 13 13 13 13 13 13 10 10 6 10 6 6 6 6 6 6 6 6 3 6 6 6 6 3 3 3 3 3 0 0 0 0 0
16 13 16 16 19 19 13 13 13 16 16 19 16 6 6 6 6 3 3 3 3 6 6 6 6 6 10 10 6 6 6 6 6 3 3 3 0 0 3 0 0 0 0
16 13 13 16 19 19 13 3 3 6 13 13 10 10 10 10 6 6 6 6 3 3 3 6 6 6 6 10 10 6 3 3 3 3 3 3 3 0 0 0 0 0 0
16 16 16 19 23 23 10 3 3 6 6 13 10 10 13 13 13 3 3 3 3 3 3 3 3 3 3 10 6 3 3 3 3 3 3 3 3 3 0 0 0 0 0
19 19 19 19 19 23 13 6 3 16 16 16 13 13 13 6 3 0 0 0 0 0 0 0 0 0 0 0 0 0 0 0 3 3 3 3 3 0 0 0 0 0 0
19 19 19 19 19 16 16 13 10 13 16 13 10 6 6 0 0 0 0 0 0 3 0 0 0 0 0 0 0 0 0 0 0 3 3 0 0 0 0 0 0 0 0
Height
5886 5886 5885 5885 5885 5884 5884 5884 5883 5883 5883 5882 5882 5882 5882 5881 5881 5881 5881 5880 5880 5880 5879 5879 5878 5877 5877 5876 5876 5876 5876 5875 5875 5875 5875 5876 5876 5877 5877 5878 5878 5879 5879
5886 5886 5886 5885 5885 5884 5884 5883 5883 5882 5882 5882 5882 5881 5881 5881 5880 5880 5880 5879 5879 5878 5878 5877 5876 5875 5875 5874 5874 5874 5873 5873 5872 5872 5873 5873 5873 5874 5874 5875 5876 5877 5877
5887 5887 5886 5885 5885 5884 5884 5883 5882 5882 5882 5882 5881 5881 5880 5880 5880 5879 5878 5878 5877 5876 5876 5875 5874 5874 5873 5872 5872 5871 5870 5870 5869 5869 5869 5870 5870 5871 5871 5872 5873 5873 5874
5887 5887 5886 5886 5885 5884 5883 5883 5882 5882 5881 5881 5880 5880 5880 5879 5879 5878 5877 5877 5876 5875 5874 5873 5873 5872 5871 5870 5869 5868 5867 5866 5866 5866 5866 5866 5867 5867 5868 5869 5869 5870 5871
5888 5887 5886 5885 5885 5884 5883 5882 5882 5881 5881 5880 5880 5879 5879 5878 5877 5877 5876 5875 5875 5873 5872 5872 5870 5869 5869 5868 5867 5865 5864 5863 5863 5862 5862 5863 5863 5863 5864 5865 5866 5867 5867
5887 5887 5886 5885 5884 5884 5883 5882 5881 5880 5880 5879 5879 5878 5877 5877 5876 5875 5874 5874 5873 5872 5871 5870 5869 5867 5867 5866 5864 5863 5862 5861 5860 5860 5859 5859 5859 5860 5861 5861 5862 5863 5865
5887 5886 5886 5885 5883 5882 5881 5881 5880 5879 5878 5878 5877 5877 5876 5875 5874 5873 5873 5872 5871 5870 5869 5868 5867 5866 5865 5863 5862 5861 5859 5858 5857 5857 5856 5856 5856 5857 5857 5858 5858 5859 5861
5887 5886 5885 5884 5883 5882 5880 5879 5878 5877 5877 5876 5876 5875 5875 5874 5873 5872 5871 5870 5869 5868 5867 5866 5865 5864 5862 5861 5860 5858 5857 5856 5855 5854 5854 5853 5853 5853 5853 5854 5854 5855 5856
5886 5885 5884 5883 5882 5881 5879 5878 5877 5876 5875 5874 5874 5873 5872 5872 5871 5870 5869 5868 5867 5865 5864 5863 5862 5861 5860 5858 5857 5856 5855 5853 5852 5852 5851 5850 5850 5850 5850 5850 5850 5852 5852
5885 5884 5883 5882 5881 5879 5878 5877 5876 5875 5873 5872 5871 5870 5870 5869 5868 5867 5866 5865 5864 5863 5862 5861 5860 5858 5857 5856 5854 5853 5852 5851 5850 5849 5848 5847 5847 5847 5846 5846 5847 5847 5848
5884 5883 5882 5880 5879 5878 5876 5875 5874 5873 5871 5870 5869 5868 5867 5866 5864 5864 5863 5862 5861 5860 5859 5858 5857 5855 5854 5853 5852 5851 5849 5848 5847 5846 5845 5844 5844 5843 5843 5843 5843 5844 5845
5883 5881 5880 5879 5877 5876 5874 5873 5872 5870 5869 5867 5866 5865 5864 5863 5862 5861 5860 5859 5858 5856 5855 5854 5853 5852 5851 5850 5848 5847 5846 5845 5843 5842 5841 5840 5840 5839 5839 5839 5839 5840 5841
5881 5880 5878 5877 5875 5873 5872 5870 5869 5868 5866 5865 5863 5862 5860 5859 5858 5857 5856 5855 5854 5853 5852 5851 5849 5848 5847 5846 5845 5844 5842 5841 5840 5838 5837 5836 5836 5835 5834 5834 5835 5836 5837
5879 5877 5876 5874 5872 5870 5869 5867 5866 5865 5863 5862 5860 5859 5857 5856 5854 5853 5852 5851 5850 5850 5848 5847 5846 5844 5843 5842 5841 5840 5838 5837 5836 5835 5833 5832 5831 5831 5830 5830 5831 5831 5832
5876 5875 5873 5871 5869 5867 5866 5864 5863 5861 5860 5858 5857 5855 5854 5852 5850 5849 5848 5847 5847 5846 5845 5843 5842 5841 5839 5838 5837 5836 5834 5833 5832 5831 5829 5828 5827 5826 5826 5826 5826 5827 5827
5873 5871 5869 5868 5866 5864 5863 5861 5860 5858 5856 5855 5854 5852 5850 5848 5847 5845 5844 5843 5842 5841 5840 5839 5838 5836 5835 5833 5832 5831 5830 5828 5827 5826 5825 5824 5822 5822 5821 5821 5821 5821 5822
5869 5868 5866 5864 5862 5861 5859 5858 5856 5854 5853 5851 5849 5848 5846 5844 5843 5841 5839 5838 5837 5836 5835 5834 5832 5831 5830 5828 5827 5825 5824 5823 5822 5820 5819 5818 5817 5816 5816 5815 5815 5815 5816
5866 5864 5862 5860 5859 5857 5855 5853 5852 5850 5849 5847 5845 5843 5841 5840 5838 5836 5834 5833 5832 5830 5829 5828 5827 5825 5824 5822 5821 5819 5818 5817 5816 5814 5813 5812 5811 5810 5810 5809 5809 5809 5810
5862 5860 5858 5856 5854 5852 5850 5849 5847 5846 5844 5842 5840 5838 5836 5834 5832 5830 5829 5827 5826 5824 5822 5821 5820 5819 5817 5816 5814 5813 5812 5810 5809 5808 5807 5806 5805 5804 5804 5804 5803 5803 5803
5858 5856 5854 5852 5850 5847 5845 5843 5842 5840 5839 5837 5835 5832 5830 5828 5826 5824 5822 5820 5819 5817 5816 5814 5813 5811 5810 5809 5807 5806 5805 5804 5803 5801 5800 5799 5798 5798 5797 5797 5796 5796 5796
5853 5851 5849 5847 5845 5843 5840 5838 5836 5835 5833 5831 5829 5826 5824 5822 5819 5817 5816 5814 5812 5811 5809 5807 5805 5804 5803 5801 5800 5799 5798 5796 5795 5794 5793 5792 5791 5791 5790 5790 5789 5789 5789
5848 5846 5844 5842 5840 5837 5835 5832 5830 5828 5827 5825 5823 5820 5817 5815 5813 5810 5809 5807 5805 5803 5802 5800 5798 5797 5795 5793 5792 5791 5789 5789 5788 5787 5785 5785 5784 5783 5783 5782 5782 5781 5781
5842 5840 5838 5836 5834 5831 5828 5826 5823 5822 5820 5818 5815 5813 5810 5808 5806 5804 5802 5800 5798 5796 5794 5793 5791 5789 5787 5785 5784 5783 5781 5780 5779 5778 5777 5777 5776 5775 5775 5774 5774 5773 5773
5837 5834 5832 5830 5827 5824 5822 5819 5817 5815 5813 5810 5808 5805 5803 5801 5798 5797 5795 5793 5791 5789 5787 5784 5782 5780 5778 5776 5775 5774 5772 5771 5770 5769 5767 5767 5767 5766 5766 5765 5765 5764 5764
5830 5828 5825 5823 5820 5818 5815 5812 5810 5808 5805 5803 5801 5798 5796 5793 5791 5789 5787 5785 5783 5781 5778 5776 5774 5771 5769 5767 5766 5764 5763 5762 5761 5760 5759 5758 5758 5757 5756 5756 5755 5755 5754
5823 5821 5818 5816 5813 5811 5808 5805 5803 5800 5798 5795 5793 5790 5788 5785 5783 5781 5779 5777 5775 5772 5770 5767 5765 5763 5761 5759 5757 5755 5754 5752 5751 5751 5750 5749 5749 5748 5748 5747 5746 5745 5745
Wind_Speed
3 2 3 3 3 3 3 3 3 2 3 3 3 3 3 4 4 5 5 5 6 6 7 7 8 8 8 8 9 9 9 10 9 10 11 11 11 11 11 12 11 11 10
4 3 2 3 3 3 2 3 3 3 3 3 3 3 3 4 5 5 5 5 6 7 8 8 8 8 8 8 9 9 10 10 10 10 11 11 11 12 12 12 12 12 12
4 4 3 3 3 3 3 3 3 3 3 3 3 3 4 4 4 5 5 5 6 6 7 7 8 8 8 9 10 11 11 11 11 11 11 12 12 12 12 12 12 12 12
4 4 4 4 3 3 3 4 3 3 3 4 4 5 5 5 6 6 6 6 6 6 7 7 8 8 8 9 10 11 12 12 11 12 12 12 12 13 13 13 13 13 13
4 4 4 4 4 4 4 4 4 4 4 4 5 6 6 6 6 7 6 6 7 7 7 7 8 8 9 9 10 10 11 11 11 11 11 12 12 13 13 13 13 13 14
5 5 5 5 5 5 5 4 4 5 5 5 5 6 6 6 7 7 7 7 7 7 7 7 8 8 9 10 10 11 11 10 11 11 11 12 12 12 12 13 14 14 14
6 5 6 6 6 6 5 5 5 6 6 6 6 6 6 7 7 8 8 9 8 8 8 8 9 9 10 10 11 12 12 11 11 11 11 11 12 12 13 13 14 14 15
6 6 6 6 7 7 7 6 6 6 7 7 7 7 8 8 8 9 9 10 10 10 10 9 10 10 10 10 11 11 12 11 11 11 11 12 12 12 12 13 14 14 15
7 7 7 7 7 7 7 7 7 7 7 8 8 9 9 10 10 10 10 10 10 11 11 11 11 11 11 11 11 11 11 11 11 11 11 12 12 12 11 12 12 13 14
7 7 8 8 8 8 8 9 9 9 9 9 9 10 10 10 11 11 11 11 12 12 12 12 12 12 12 12 11 12 12 12 12 12 12 12 13 13 13 13 13 13 13
8 8 9 9 10 10 10 11 11 10 10 10 11 11 11 12 12 11 11 12 13 13 13 13 13 13 13 13 12 12 13 13 13 12 13 13 14 14 14 15 15 15 15
9 10 11 10 11 11 12 12 12 11 11 11 12 12 12 12 13 12 12 12 13 13 13 13 14 14 14 13 13 14 14 14 14 14 14 14 14 15 16 15 16 15 15
10 11 11 12 12 13 13 13 13 13 13 13 13 13 13 13 13 13 13 13 13 13 14 15 15 15 14 14 14 14 15 15 15 15 15 15 15 16 16 16 16 16 17
12 12 12 13 14 14 13 13 14 14 14 13 13 13 13 13 14 14 14 13 13 14 15 15 16 16 16 16 15 16 16 16 16 15 15 15 16 17 16 17 17 17 17
13 13 14 15 14 14 14 14 14 14 14 13 14 14 14 15 15 15 16 15 15 14 15 16 16 17 18 18 18 18 18 18 18 17 16 17 17 18 18 18 17 17 18
14 14 15 15 14 14 14 14 14 15 14 15 15 15 16 17 17 17 17 17 17 17 17 17 17 18 19 20 20 20 20 20 20 20 19 19 19 19 19 19 19 19 19
15 15 15 15 15 15 16 16 16 16 16 16 16 17 18 18 18 18 19 19 19 19 19 18 20 20 21 21 22 22 22 22 22 22 21 21 20 20 20 20 21 22 22
15 15 15 16 16 17 18 18 17 18 17 17 18 19 19 20 19 20 20 21 21 21 21 21 21 22 22 23 23 23 23 23 23 23 23 22 22 22 21 21 21 22 22
16 16 17 17 17 18 18 18 18 18 18 19 20 21 21 21 21 21 22 22 22 22 23 23 23 23 23 23 24 24 24 24 24 24 23 23 22 22 22 21 21 22 23
17 17 18 18 19 19 19 19 19 19 19 20 21 22 22 23 23 23 23 23 23 23 23 23 23 24 24 24 24 24 24 24 24 25 24 24 23 23 23 23 23 23 24
18 19 19 20 21 21 21 20 20 20 21 22 23 24 24 24 24 24 24 24 24 24 24 24 25 25 25 25 26 25 26 26 25 25 25 24 24 24 24 24 24 24 25
21 21 21 21 22 23 23 23 22 22 23 24 24 24 25 25 25 25 25 25 25 25 25 26 26 26 27 27 26 27 27 26 26 26 26 25 25 25 25 25 25 26 26
22 22 23 23 23 24 24 24 24 24 25 26 25 25 26 26 26 26 26 26 26 26 27 27 27 27 27 27 27 27 28 28 27 27 28 27 27 27 27 27 26 26 27
23 24 24 24 24 24 25 25 25 26 26 27 27 27 27 27 27 27 26 26 27 27 27 28 27 28 28 28 28 28 28 28 28 29 29 28 27 27 27 28 27 27 28
25 25 25 25 25 25 26 26 26 26 27 27 27 28 28 28 28 28 27 28 28 28 28 29 28 28 29 29 29 28 29 29 28 29 29 28 28 28 27 27 28 28 28
26 26 26 26 26 27 27 27 27 27 28 28 28 28 28 28 28 28 28 27 27 28 28 28 28 28 28 29 29 29 28 28 28 27 27 27 27 27 27 27 28 29 29
Wind_Direction
40 17 8 348 331 315 316 319 320 306 297 290 285 286 271 269 279 280 276 273 276 279 275 274 278 282 280 280 280 281 278 275 272 264 261 261 258 257 255 252 249 250 248
46 35 14 354 343 329 331 340 341 330 312 298 295 304 295 284 293 290 287 283 286 283 276 273 276 273 274 276 280 281 280 277 273 269 264 259 256 256 256 251 247 248 248
37 28 17 13 4 351 340 337 337 325 310 301 301 304 305 299 299 301 294 291 291 289 284 277 275 276 278 280 280 280 281 277 272 267 265 262 257 254 253 252 248 249 246
24 23 25 16 1 345 335 333 332 320 308 304 302 303 300 296 299 304 305 303 301 292 287 285 280 280 281 281 284 284 283 276 269 265 263 261 259 253 251 252 249 248 244
11 8 1 355 346 343 337 329 322 313 312 307 304 304 301 295 296 303 305 302 306 304 296 293 286 282 284 285 287 289 293 284 274 267 263 262 259 254 251 251 248 246 245
2 356 345 344 339 338 331 319 309 304 302 305 305 306 307 300 302 304 306 303 303 304 303 298 294 291 289 289 291 293 293 287 281 272 266 264 259 253 253 252 246 243 242
351 342 336 336 335 332 331 323 319 306 296 298 300 298 303 307 304 303 300 301 301 300 299 298 297 295 294 294 293 292 290 288 283 275 270 269 263 255 252 251 248 245 244
344 337 333 331 330 332 334 331 331 318 304 302 297 295 298 303 304 299 295 292 294 297 297 296 297 297 296 295 296 295 291 290 286 280 273 273 270 263 260 253 253 248 248
335 338 336 328 330 332 332 329 327 321 311 305 300 296 294 295 298 295 290 287 290 293 293 293 294 294 295 295 296 296 294 292 287 283 278 275 271 267 264 261 256 253 255
333 330 330 328 326 324 320 318 316 315 311 307 304 300 295 296 295 294 291 288 288 289 290 292 294 295 296 296 296 297 298 297 290 283 279 278 274 271 265 263 258 255 258
333 329 325 321 319 312 309 310 310 307 308 307 304 301 297 293 292 289 291 289 290 290 290 293 294 294 294 296 296 296 297 296 295 289 284 280 276 274 271 264 259 257 257
329 327 324 320 316 310 307 305 304 303 303 303 302 299 297 293 291 287 287 288 290 290 289 292 293 292 293 293 292 293 297 297 296 291 287 281 277 276 273 267 261 257 256
322 321 319 315 313 310 307 306 304 302 300 298 298 298 296 294 291 287 285 285 286 287 287 289 291 292 292 290 291 294 296 295 295 292 288 284 281 278 275 269 264 261 258
318 317 314 310 309 308 306 305 305 302 300 297 296 299 297 295 293 292 288 285 285 285 286 289 289 290 291 291 290 293 295 296 293 290 287 284 282 278 276 272 267 263 260
315 313 312 312 310 310 308 305 305 303 300 300 299 298 300 296 292 291 289 286 287 287 286 288 289 288 289 290 291 292 293 293 292 292 288 284 282 280 276 273 266 263 263
309 308 307 309 310 310 311 309 306 305 301 301 301 302 304 301 294 292 290 288 289 290 288 288 289 288 287 287 288 289 290 292 293 292 290 287 283 279 277 272 269 265 262
305 307 308 307 308 308 307 307 306 303 301 300 300 300 301 303 300 293 291 290 290 290 287 287 287 287 286 284 284 286 287 288 289 288 288 287 284 280 277 273 269 266 263
306 308 310 310 308 306 303 302 301 301 298 298 300 300 299 298 298 295 293 291 290 289 287 286 286 286 286 285 285 285 285 284 285 285 285 284 283 280 279 277 272 268 264
308 308 307 305 304 303 302 300 299 299 297 297 299 300 299 296 296 295 293 291 290 290 289 286 285 285 286 285 284 285 285 283 283 283 283 281 280 278 279 278 275 270 267
304 304 305 304 303 303 300 298 297 298 298 298 299 300 299 298 296 294 292 290 288 289 289 288 288 287 286 284 283 284 284 284 283 281 280 280 277 277 278 277 274 271 269
301 302 303 303 303 304 303 299 295 295 297 297 297 298 298 298 297 295 293 290 288 288 289 291 290 289 287 285 285 286 286 284 283 282 280 280 278 277 278 277 274 272 270
300 302 303 303 301 302 304 300 295 293 295 296 295 296 297 297 296 295 293 290 288 288 288 289 290 289 288 286 286 286 286 285 283 280 279 279 277 277 277 276 275 273 270
301 302 302 302 302 302 302 302 298 295 295 297 298 297 296 296 297 295 293 291 289 289 289 290 290 291 289 287 285 285 285 283 282 281 279 277 276 276 277 277 275 272 269
302 302 302 302 301 301 301 302 301 299 299 298 297 297 297 296 295 294 293 291 291 292 292 292 291 290 288 287 285 285 284 283 283 281 280 278 275 276 276 276 274 272 271
300 301 301 302 301 301 301 302 301 301 300 299 299 298 297 295 294 294 293 292 293 294 293 293 291 290 288 287 285 284 285 284 283 281 280 278 277 277 276 275 276 274 272
299 300 300 301 301 301 301 301 301 301 300 300 299 299 297 295 293 293 293 293 294 294 293 292 291 291 290 290 289 287 287 284 284 282 279 278 277 277 278 277 276 276 276